View from above orbital plane
|
View from above satellite
|
Ground track
|
The orbit data is extracted from the following two-line orbital elements,
1 02680U 67014A 21023.58642366 -.00000060 00000-0 10941-4 0 9998
2 02680 39.4396 201.2378 0718506 355.9672 3.5477 13.38097829611665
Epoch (UTC): | 23 January 2021 14:04:27 |
Eccentricity: | 0.0718506 |
inclination: | 39.4396° |
perigee height: | 578 km |
apogee height: | 1655 km |
right ascension of ascending node: | 201.2378° |
argument of perigee: | 355.9672° |
revolutions per day: | 13.38097829 |
mean anomaly at epoch: | 3.5477° |
orbit number at epoch: | 61166 |
The dashed part of the orbit path shows where the satellite is in the earth's shadow,
|
|